This demonstration page uses our WeatherBlox Daily Observations layout. Learn more.

Left ArrowRight Arrow

34.74481, -87.66753

Hourly Observations for July 23, 2022

Temp ( °F °C ) Dew Point ( °F °C ) Humidity (%) Winds ( mph kmh ) Pressure ( in mb ) Visibility ( mi km ) Precip ( " mm )
12:53 am 00:53 Clear 75 23.9 72 22.2 90 90 Calm 30.06 1018 10 16 0.00 0.00
1:53 am 01:53 Clear 74 23.3 71 21.7 91 91 Calm 30.05 1018 10 16 0.00 0.00
2:53 am 02:53 Clear 73 22.8 71 21.7 94 94 SSE 6 9 30.05 1018 10 16 0.00 0.00
3:53 am 03:53 Clear 73 22.8 71 21.7 94 94 Calm 30.06 1018 10 16 0.00 0.00
4:51 am 04:51 Clear with Mist and Fog 72 22 70 21 94 94 Calm 30.07 1018 2 3 0.00 0.00
4:53 am 04:53 Clear with Mist and Fog 71 21.7 70 21.1 96 96 Calm 30.07 1018 1 2 0.00 0.00
5:00 am 05:00 Clear with Fog 71 21.7 70 21.1 96 96 Calm 30.07 1018 1 1 0.00 0.00
5:16 am 05:16 Clear with Mist and Fog 70 21.1 69 20.6 97 97 Calm 30.09 1019 2 3 0.00 0.00
5:23 am 05:23 Clear 71 21.7 69 20.6 94 94 Calm 30.08 1019 10 16 0.00 0.00
5:53 am 05:53 Clear 71 21.7 69 20.6 94 94 Calm 30.09 1019 7 11 0.00 0.00
5:58 am 05:58 Sunny with Mist and Fog 71 21.7 69 20.6 94 94 Calm 30.09 1019 2 3 0.00 0.00
6:09 am 06:09 Sunny with Mist and Fog 71 21.7 69 20.6 94 94 Calm 30.09 1019 1 1 0.00 0.00
6:18 am 06:18 Sunny with Mist and Fog 71 21.7 69 20.6 94 94 Calm 30.09 1019 2 2 0.00 0.00
6:24 am 06:24 Sunny with Mist and Fog 72 22.2 70 21.1 94 94 Calm 30.09 1019 3 5 0.00 0.00
6:53 am 06:53 Sunny with Mist and Fog 74 23.3 72 22.2 94 94 Calm 30.10 1019 6 10 0.00 0.00
7:53 am 07:53 Sunny 77 25 72 22.2 85 85 Calm 30.11 1020 10 16 0.00 0.00
8:53 am 08:53 Sunny 81 27.2 73 22.8 77 77 VRB 3 6 30.11 1020 10 16 0.00 0.00
9:53 am 09:53 Partly Cloudy 84 28.9 73 22.8 70 70 VRB 3 6 30.11 1020 10 16 0.00 0.00
10:04 am 10:04 Mostly Cloudy 87 30.6 73 22.8 63 63 WNW 6 9 30.11 1020 10 16 0.00 0.00
10:17 am 10:17 Partly Cloudy 85 29.4 72 22.2 65 65 Calm 30.11 1020 10 16 0.00 0.00
10:53 am 10:53 Mostly Sunny 88 31.1 73 22.8 61 61 NNW 3 6 30.11 1020 10 16 0.00 0.00
11:53 am 11:53 Mostly Sunny 89 31.7 71 21.7 55 55 SSW 6 9 30.11 1020 10 16 0.00 0.00
12:53 pm 12:53 Partly Cloudy 91 32.8 71 21.7 52 52 VRB 3 6 30.09 1019 10 16 0.00 0.00
1:53 pm 13:53 Partly Cloudy 92 33.3 71 21.7 51 51 E 6 9 30.06 1018 10 16 0.00 0.00
2:53 pm 14:53 Mostly Sunny 92 33.3 70 21.1 49 49 Calm 30.05 1018 10 16 0.00 0.00
3:53 pm 15:53 Cloudy 91 32.8 72 22.2 54 54 ESE 5 7 30.04 1017 10 16 0.00 0.00
4:53 pm 16:53 Partly Cloudy 93 33.9 71 21.7 49 49 SSE 7 11 30.00 1016 10 16 0.00 0.00
5:53 pm 17:53 Sunny 90 32.2 73 22.8 58 58 ESE 6 9 30.01 1016 10 16 0.00 0.00
6:53 pm 18:53 Mostly Sunny 86 30 73 22.8 65 65 SSW 10 17 30.03 1017 10 16 0.01 0.25
7:53 pm 19:53 Sunny 84 28.9 72 22.2 67 67 SSW 6 9 30.05 1018 10 16 0.00 0.00
8:53 pm 20:53 Clear 81 27.2 71 21.7 72 72 SSW 3 6 30.06 1018 10 16 0.00 0.00
9:53 pm 21:53 Clear 78 25.6 72 22.2 82 82 Calm 30.08 1019 10 16 0.00 0.00
10:53 pm 22:53 Clear 76 24.4 72 22.2 88 88 SSE 5 7 30.07 1018 10 16 0.00 0.00
11:53 pm 23:53 Clear 78 25.6 72 22.2 82 82 SSE 3 6 30.07 1018 10 16 0.00 0.00

Powered by AerisWeather